Погода в Бытуве

Польша     54°10′28″N   17°29′59″E
темп.,
°C
ветер,
м/с
пор.,
м/с
влажн.,
%
обл.,
%
осадки,
мм/ч
давл.,
гПа
погр.,
м
25 февраля, чт
чт2501:00+8юз389317 0.0 1028164
04:00+7юз349140 0.0 102790
07:00+6ююз359120 0.0 102787
10:00+10ююз48820 0.0 1026261
13:00+14юз59750 0.0 1025550
16:00+13юз410790 0.0 1023513
19:00+10зюз411890 0.0 1023327
22:00+8з312958 0.0 1023397
26 февраля, пт
пт2601:00+7з6139141 0.0 1024723
04:00+5з6149095 0.0 1024610
07:00+3з5138793 0.0 1024526
10:00+5з61380100 0.0 1024690
13:00+7зсз8147092 0.0 10241119
16:00+6зсз7137865 0.0 1023900
19:00+4зсз7138564 0.0 1024905
22:00+4зсз61383100 0.0 1023838
27 февраля, сб
сб2701:00+3зсз7138897 0.0 1024736
04:00+3зсз599396 0.0 1024516
07:00+1сз379691 0.0 1027329
10:00+4ссз477827 0.0 1029599
13:00+5ссз476713 0.0 1031810
16:00+4ссз47710 0.0 1031703
19:00+1сз25890 0.0 1032166
22:000зсз238911 0.0 103362
28 февраля, вс
вс2801:000з278818 0.0 1033161
04:000з26890 0.0 1032147
07:00+1зсз248650 0.0 1032119
10:00+4з2270100 0.0 1033233
13:00+6зюз236495 0.0 1033579
16:00+5сз238160 0.0 1033292
19:00+4ссз119180 0.0 103423
22:00+3св1292100 0.0 103626
1 марта, пн
пн101:00+2ююв119290 0.0 103622
04:00+1ю11930 0.0 103722
07:00+1ююз11920 0.0 103722
10:00+5ююз12740 0.0 1038252
13:00+7юз23650 0.0 1038707
16:00+8зюз24670 0.0 1038685
19:00+4ююз22820 0.0 103822
22:00+3юз23884 0.0 103845